Flag for Liberia Weather past 2 weeks in Monrovia, Liberia

Now
75 °F

Passing clouds.


Feels Like: 74 °F
Forecast: N/A
Wind: No wind

Location: Roberts Field

Current Time: Aug 3, 2015 at 10:08:56 PM

Latest Report: Aug 3, 2015 at 9:00 PM


Visibility: N/A

Pressure: 29.98 "Hg

Humidity: 94%

Dew point: 73 °F

Location of MonroviaLocation

Historic Weather in Monrovia — Graph

°F

Monrovia temperature yesterday

Maximum temperature yesterday: 84 °F (at 12:30 PM)
Minimum temperature yesterday: 77 °F (at 10:00 PM)
Average temperature yesterday: 80 °F

Past Weeks' High & Low Weather Summary

 TemperatureHumidityPressure
High84 °F (Jul 26, 12:30 PM)100% (Jul 21, 3:30 AM)30.04 "Hg (Jul 21, 3:30 AM)
Low70 °F (Jul 29, 6:30 AM)62% (Jul 29, 12:30 PM)29.89 "Hg (Aug 2, 4:30 PM)
Average77 °F88%29.97 "Hg
* Reported Jul 19 8:00 PM — Aug 3 8:00 PM, Monrovia, Weather by CustomWeather, © 2015

Note: Actual official high and low records may vary slightly from our data, if they occured in-between our weather recording intervals... More about our weather records

Advertising

Monrovia weather history for previous 24 hours

 ConditionsComfort  
Time TempWeatherWind HumidityBarometerVisibility
8:00 PM
Mon, Aug 3
75 °FPassing clouds.No wind94%29.95 "HgN/A
7:30 PM75 °FPartly sunny.No wind94%29.95 "HgN/A
7:00 PM75 °FScattered clouds.No wind94%29.92 "HgN/A
6:30 PM77 °FScattered clouds.No wind89%29.92 "HgN/A
6:00 PM77 °FPartly sunny.6 mph89%29.92 "HgN/A
5:30 PM77 °FPartly sunny.6 mph89%29.92 "HgN/A
5:00 PM77 °FPartly sunny.5 mph89%29.92 "HgN/A
4:30 PM77 °FPartly sunny.8 mph94%29.92 "HgN/A
4:00 PM75 °FPartly sunny.5 mph94%29.92 "HgN/A
3:30 PM73 °FThunderstorms. Partly sunny.6 mph94%29.92 "HgN/A
3:00 PM73 °FThunderstorms. Partly sunny.No wind94%29.95 "Hg6 mi
2:30 PM72 °FThunderstorms. Partly sunny.No wind94%29.95 "Hg5 mi
2:00 PM72 °FThunderstorms. Mostly cloudy.No wind94%29.98 "Hg4 mi
1:30 PM73 °FThunderstorms. Mostly cloudy.No wind94%29.98 "Hg2 mi
1:00 PM72 °FThunderstorms. Mostly cloudy.3 mph94%30.01 "Hg2 mi
12:30 PM75 °FHeavy rain. Mostly cloudy.No wind94%30.01 "Hg1 mi
12:00 PM81 °FRain showers. Partly sunny.10 mph84%29.98 "Hg5 mi
11:30 AM82 °FPartly sunny.6 mph79%29.98 "HgN/A
11:00 AM82 °FPartly sunny.3 mph84%29.98 "HgN/A
10:30 AM82 °FPartly sunny.No wind84%29.98 "HgN/A
9:30 AM81 °FPartly sunny.7 mph84%30.01 "HgN/A
9:00 AM79 °FPartly sunny.No wind94%29.98 "HgN/A
8:30 AM79 °FPartly sunny.No wind89%29.98 "HgN/A
8:00 AM77 °FScattered clouds.No wind94%29.98 "HgN/A
7:30 AM77 °FPartly cloudy.No wind94%29.95 "HgN/A
7:00 AM77 °FPassing clouds.No wind94%29.95 "HgN/A
6:30 AM77 °FPassing clouds.No wind94%29.95 "HgN/A
6:00 AM77 °FPartly cloudy.No wind94%29.95 "HgN/A
5:30 AM77 °FPassing clouds.No wind94%29.95 "HgN/A
2:00 AM77 °FPassing clouds.No wind94%29.95 "HgN/A
1:30 AM77 °FPassing clouds.No wind94%29.95 "HgN/A
1:00 AM77 °FPassing clouds.No wind94%29.95 "HgN/A
12:30 AM77 °FPassing clouds.No wind94%29.98 "HgN/A
12:00 AM77 °FPassing clouds.No wind94%29.98 "HgN/A
11:30 PM
Sun, Aug 2
77 °FPassing clouds.No wind94%29.98 "HgN/A
11:00 PM77 °FPassing clouds.No wind94%29.95 "HgN/A
10:30 PM77 °FPassing clouds.No wind94%29.95 "HgN/A
10:00 PM77 °FPassing clouds.No wind94%29.95 "HgN/A
Weather by CustomWeather, © 2015

See weather overviewHow to use our weather pages